TimeEST,TemperatureF,Dew PointF,Humidity,Sea Level PressureIn,VisibilityMPH,Wind Direction,Wind SpeedMPH,Gust SpeedMPH,PrecipitationIn,Events,Conditions,WindDirDegrees,DateUTC
12:53 AM,21.0,17.1,85,30.29,10.0,Calm,Calm,-,N/A,,Clear,0,2012-11-07 05:53:00
1:53 AM,21.0,17.1,85,30.30,9.0,Calm,Calm,-,N/A,,Clear,0,2012-11-07 06:53:00
2:53 AM,19.9,17.1,89,30.30,10.0,Calm,Calm,-,N/A,,Clear,0,2012-11-07 07:53:00
3:53 AM,19.9,16.0,85,30.33,10.0,Calm,Calm,-,N/A,,Clear,0,2012-11-07 08:53:00
4:53 AM,18.0,16.0,92,30.32,10.0,Calm,Calm,-,N/A,,Clear,0,2012-11-07 09:53:00
5:53 AM,18.0,15.1,88,30.32,10.0,Calm,Calm,-,N/A,,Clear,0,2012-11-07 10:53:00
6:53 AM,18.0,15.1,88,30.32,10.0,Calm,Calm,-,N/A,,Clear,0,2012-11-07 11:53:00
7:53 AM,24.1,18.0,77,30.32,10.0,NE,4.6,-,N/A,,Clear,50,2012-11-07 12:53:00
8:53 AM,28.9,18.0,64,30.32,10.0,NE,8.1,-,N/A,,Clear,50,2012-11-07 13:53:00
9:53 AM,30.0,16.0,56,30.30,10.0,ENE,8.1,-,N/A,,Clear,60,2012-11-07 14:53:00
10:53 AM,33.1,17.1,52,30.27,10.0,Variable,3.5,18.4,N/A,,Clear,0,2012-11-07 15:53:00
11:53 AM,36.0,16.0,44,30.23,10.0,NNE,10.4,17.3,N/A,,Clear,30,2012-11-07 16:53:00
12:53 PM,37.9,12.9,36,30.21,10.0,ENE,12.7,17.3,N/A,,Clear,60,2012-11-07 17:53:00
1:53 PM,39.0,12.9,34,30.19,10.0,NE,10.4,17.3,N/A,,Clear,40,2012-11-07 18:53:00
2:53 PM,37.9,12.9,36,30.17,10.0,NNE,8.1,-,N/A,,Clear,30,2012-11-07 19:53:00
3:53 PM,36.0,15.1,43,30.15,10.0,NNE,6.9,-,N/A,,Clear,20,2012-11-07 20:53:00
4:53 PM,34.0,17.1,50,30.14,10.0,NNE,10.4,-,N/A,,Clear,20,2012-11-07 21:53:00
5:53 PM,33.1,18.0,54,30.14,10.0,NNE,6.9,-,N/A,,Clear,20,2012-11-07 22:53:00
6:53 PM,33.1,19.0,56,30.14,10.0,NNE,8.1,-,N/A,,Clear,20,2012-11-07 23:53:00
7:53 PM,32.0,19.0,59,30.12,10.0,NE,5.8,-,N/A,,Clear,50,2012-11-08 00:53:00
8:53 PM,33.1,19.9,59,30.13,10.0,NE,12.7,20.7,N/A,,Clear,40,2012-11-08 01:53:00
9:17 PM,33.8,21.2,60,30.09,10.0,NE,8.1,18.4,N/A,,Mostly Cloudy,40,2012-11-08 02:17:00
9:53 PM,33.1,21.0,61,30.12,10.0,NNE,8.1,-,N/A,,Overcast,20,2012-11-08 02:53:00
10:46 PM,33.8,21.2,60,30.07,10.0,NNE,6.9,-,N/A,,Scattered Clouds,20,2012-11-08 03:46:00
10:53 PM,33.1,21.9,64,30.09,10.0,North,8.1,-,N/A,,Scattered Clouds,10,2012-11-08 03:53:00
11:27 PM,33.8,23.0,65,30.05,10.0,North,6.9,-,N/A,,Overcast,10,2012-11-08 04:27:00
11:53 PM,33.1,23.0,66,30.08,10.0,NNE,6.9,-,N/A,,Overcast,20,2012-11-08 04:53:00